Location: Emporia
(38.4040°N, 96.1810°W)
Time: 04:07:01
(UTC-05:00)

ISS - Visible Passes

Search period start: 20 April 2014 00:00
Search period end: 30 April 2014 00:00
Orbit: 414 x 419 km, 51.6° (Epoch: 20 April)

Date Brightness Start Highest point End Pass type
(mag) Time Alt. Az. Time Alt. Az. Time Alt. Az.
20 Apr -2.6 22:03:11 10° NW 22:06:01 52° N 22:06:01 52° N visible
21 Apr -2.3 21:14:48 10° NW 21:17:56 36° NNE 21:19:29 23° E visible
21 Apr -0.2 22:51:49 10° WNW 22:52:23 13° W 22:52:23 13° W visible
22 Apr -2.3 22:02:53 10° WNW 22:05:51 41° WSW 22:05:51 41° WSW visible
23 Apr -3.3 21:14:09 10° NW 21:17:30 81° SW 21:19:19 25° SE visible
24 Apr -0.8 22:03:21 10° W 22:05:12 14° SW 22:05:43 14° SW visible
25 Apr -1.4 21:13:48 10° WNW 21:16:37 25° SW 21:19:14 11° S visible
